MST,Max TemperatureF,Mean TemperatureF,Min TemperatureF,Max Dew PointF,MeanDew PointF,Min DewpointF,Max Humidity, Mean Humidity, Min Humidity, Max Sea Level PressureIn, Mean Sea Level PressureIn, Min Sea Level PressureIn, Max VisibilityMiles, Mean VisibilityMiles, Min VisibilityMiles, Max Wind SpeedMPH, Mean Wind SpeedMPH, Max Gust SpeedMPH,PrecipitationIn, CloudCover, Events, WindDirDegrees
2012-12-1,57,42,28,33,29,23,82,60,39,29.81,29.76,29.69,10,10,10,15,5,18,0.00,2,,222
2012-12-2,59,47,35,36,28,24,70,48,31,29.75,29.49,29.31,10,10,10,29,10,44,0.00,1,Rain,187
2012-12-3,51,42,34,36,20,15,76,43,24,30.07,29.84,29.55,10,10,10,32,17,44,0.00,2,,271
2012-12-4,46,37,28,21,18,17,64,51,31,30.19,30.11,29.99,10,10,10,13,8,,0.00,1,,170
2012-12-5,54,41,28,31,24,17,66,54,41,29.97,29.82,29.67,10,10,10,25,8,37,0.00,2,,267
2012-12-6,39,31,23,19,14,8,69,50,27,30.09,30.01,29.95,10,10,10,17,11,25,0.00,3,,264
2012-12-7,36,30,24,27,22,17,86,77,59,29.98,29.91,29.79,10,9,2,13,4,,0.01,4,Snow,230
2012-12-8,32,18,1,23,8,-4,82,75,64,30.29,29.92,29.64,10,7,2,24,11,30,0.00,8,Snow,2
2012-12-9,16,2,-7,4,-5,-14,78,70,59,30.55,30.36,30.01,10,10,9,16,11,,0.00,2,Snow,252
2012-12-10,28,22,16,20,17,4,81,69,57,29.96,29.83,29.72,10,8,2,26,17,36,0.00,8,Snow,286
2012-12-11,35,26,16,22,17,10,81,66,56,29.89,29.73,29.53,10,10,10,14,8,,0.00,4,,231
2012-12-12,37,31,25,29,26,18,93,79,59,29.90,29.74,29.60,10,7,2,12,4,,0.04,7,Snow,79
2012-12-13,39,30,19,31,25,16,93,85,68,29.99,29.89,29.80,10,8,1,10,6,,0.00,6,,150
2012-12-14,45,30,16,29,20,10,85,75,53,29.85,29.76,29.67,10,10,9,7,3,,0.00,0,,87
2012-12-15,32,24,17,24,17,12,93,81,66,29.87,29.79,29.72,10,7,0,8,4,,0.00,5,Fog-Snow,290
2012-12-16,34,26,17,22,19,13,85,74,59,29.78,29.73,29.69,10,10,10,14,6,,0.00,5,,163
2012-12-17,37,24,12,23,15,7,77,66,44,29.70,29.55,29.43,10,10,10,17,5,,0.00,4,,151
2012-12-18,33,25,17,23,17,10,80,63,43,29.82,29.64,29.45,10,8,1,29,18,39,0.00,5,Snow,275
2012-12-19,26,16,5,16,10,-2,84,75,60,30.20,30.01,29.74,10,9,4,20,12,28,0.00,4,Snow,293
2012-12-20,35,20,6,9,5,-2,73,58,33,30.20,30.14,30.08,10,10,10,17,4,24,0.00,0,,206
2012-12-21,44,28,12,17,11,6,77,60,25,30.12,30.06,30.01,10,10,10,5,2,,0.00,0,,185
2012-12-22,19,12,5,11,4,-1,81,74,60,30.23,30.11,29.88,10,10,9,23,7,26,0.00,1,Snow,52
2012-12-23,12,4,-5,5,2,-11,85,75,67,30.20,30.04,29.92,10,7,1,25,11,33,0.00,6,Snow,347
2012-12-24,10,1,-8,3,-5,-15,78,75,67,30.49,30.24,29.99,10,9,2,14,6,,0.00,5,Snow,98
2012-12-25,8,0,-9,0,-4,-15,84,75,67,30.54,30.36,30.09,10,5,2,8,3,,0.01,7,Snow,247
2012-12-26,9,-1,-11,3,-5,-17,79,74,68,30.27,30.03,29.84,10,8,2,20,10,,0.00,6,Snow,112
2012-12-27,10,0,-9,3,-1,-18,83,75,65,30.15,30.00,29.85,10,6,2,13,7,,0.02,7,Snow,91
2012-12-28,21,6,-9,14,2,-18,84,73,60,30.16,30.07,29.92,10,8,2,15,4,,0.00,5,Snow,271
2012-12-29,27,18,7,13,8,1,81,69,55,30.18,30.11,30.05,10,10,10,18,10,,0.00,0,,260
2012-12-30,24,14,3,18,14,-3,86,79,71,30.17,30.07,29.96,10,9,2,17,10,,0.00,6,Snow,278
2012-12-31,23,16,6,16,11,2,86,77,68,30.18,30.13,30.02,10,10,10,14,5,,0.00,5,,261